This demonstration page uses our WeatherBlox Daily Observations layout. Learn more.

Hourly Observations for July 14, 2017

Temp ( °F °C ) Dew Point ( °F °C ) Humidity (%) Winds ( mph kmh ) Pressure ( in mb ) Visibility ( mi km ) Precip ( " mm )
12:54 am 00:54 Clear 72 22.2 69 20.6 91 91 Calm 30.13 1020 7 11.26538 0 0
1:54 am 01:54 Clear with Mist and Fog 69 20.6 67 19.4 93 93 Calm 30.12 1020 6 9.65604 0 0
2:54 am 02:54 Clear with Mist and Fog 68 20 67 19.4 96 96 N 7 11 30.11 1020 5 8.0467 0 0
3:54 am 03:54 Clear with Mist and Fog 67 19.4 66 18.9 97 97 N 6 9 30.11 1020 5 8.0467 0 0
4:54 am 04:54 Clear with Mist and Fog 68 20 67 19.4 96 96 Calm 30.12 1020 5 8.0467 0 0
5:07 am 05:07 Mostly Clear with Mist and Fog 67 19.4 66 18.9 97 97 Calm 30.12 1020 5 8.0467 0 0
5:54 am 05:54 Clear with Mist and Fog 66 18.9 65 18.3 96 96 N 5 7 30.13 1020 6 9.65604 0 0
6:20 am 06:20 Partly Cloudy with Mist and Fog 66 18.9 65 18.3 96 96 N 7 11 30.12 1020 5 8.0467 0 0
6:23 am 06:23 Mostly Cloudy with Mist and Fog 66 18.9 65 18.3 96 96 N 7 11 30.12 1020 1 1.60934 0 0
6:27 am 06:27 Mostly Cloudy with Fog 66 18.9 66 18.9 100 100 N 6 9 30.12 1020 0.25 0.402335 0 0
6:39 am 06:39 Mostly Cloudy with Fog 67 19.4 67 19.4 100 100 N 3 6 30.15 1021 0.25 0.402335 0 0
6:54 am 06:54 Mostly Cloudy with Fog 68 20 67 19.4 96 96 N 3 6 30.14 1021 5 8.0467 0 0
7:07 am 07:07 Mostly Cloudy with Fog 68 20 68 20 100 100 N 3 6 30.15 1021 5 8.0467 0 0
7:39 am 07:39 Mostly Cloudy with Fog 70 21.1 69 20.6 97 97 ENE 3 6 30.15 1021 0.25 0.402335 0 0
7:54 am 07:54 Mostly Cloudy with Mist and Fog 70 21.1 69 20.6 97 97 ENE 5 7 30.14 1021 0.75 1.207005 0 0
8:22 am 08:22 Cloudy with Mist and Fog 70 21.1 69 20.6 97 97 NE 6 9 30.15 1021 3 4.82802 0 0
8:54 am 08:54 Mostly Cloudy with Mist and Fog 73 22.8 69 20.6 87 87 NE 7 11 30.15 1021 6 9.65604 0 0
9:06 am 09:06 Mostly Cloudy 74 23.3 70 21.1 88 88 NNE 7 11 30.15 1021 7 11.26538 0 0
9:27 am 09:27 Partly Cloudy 76 24.4 70 21.1 82 82 NE 8 13 30.15 1021 10 16.0934 0 0
9:54 am 09:54 Partly Cloudy 77 25 70 21.1 79 79 NE 6 9 30.15 1021 10 16.0934 0 0
10:54 am 10:54 Mostly Sunny 79 26.1 70 21.1 74 74 ENE 7 11 30.16 1021 10 16.0934 0 0
11:54 am 11:54 Sunny 82 27.8 71 21.7 69 69 ESE 9 15 30.16 1021 10 16.0934 0 0
12:54 pm 12:54 Mostly Sunny 84 28.9 69 20.6 61 61 SE 8 13 30.15 1021 10 16.0934 0 0
1:54 pm 13:54 Sunny 85 29.4 69 20.6 59 59 SE 8 13 30.14 1021 10 16.0934 0 0
2:54 pm 14:54 Sunny 87 30.6 69 20.6 55 55 SE 9 15 30.12 1020 10 16.0934 0 0
3:54 pm 15:54 Sunny 87 30.6 68 20 53 53 S 6 9 30.11 1020 10 16.0934 0 0
4:54 pm 16:54 Sunny 88 31.1 67 19.4 50 50 SE 6 9 30.1 1019 10 16.0934 0 0
5:54 pm 17:54 Sunny 87 30.6 66 18.9 50 50 SSE 6 9 30.09 1019 10 16.0934 0 0
6:54 pm 18:54 Sunny 87 30.6 68 20 53 53 ESE 10 17 30.08 1019 10 16.0934 0 0
7:54 pm 19:54 Sunny 84 28.9 67 19.4 57 57 ESE 7 11 30.09 1019 10 16.0934 0 0
8:54 pm 20:54 Sunny 81 27.2 69 20.6 67 67 ESE 7 11 30.09 1019 10 16.0934 0 0
9:54 pm 21:54 Clear 79 26.1 68 20 69 69 SE 7 11 30.1 1019 10 16.0934 0 0
10:54 pm 22:54 Clear 77 25 69 20.6 77 77 SSE 8 13 30.11 1020 10 16.0934 0 0
11:54 pm 23:54 Clear 75 23.9 69 20.6 82 82 S 6 9 30.12 1020 10 16.0934 0 0

Powered by AerisWeather